Regional Weather Roundup
Issued by NWS Jackson, KY

Home | Current Version | Previous Version | Graphics & Text | Print | Product List | Glossary On
Versions: 1 2 3 4 5 6 7 8 9 10 11 12 13 14 15 16 17 18 19 20 21 22 23 24 25 26 27 28 29 30 31 32 33 34 35 36 37 38 39 40 41 42 43 44 45 46 47 48 49 50
000
ASUS43 KJKL 181610
RWRJKL

EAST KENTUCKY HOURLY WEATHER ROUNDUP
NATIONAL WEATHER SERVICE JACKSON KY
1100 AM EST SAT FEB 18 2017

NOTE: "FAIR" INDICATES FEW OR NO CLOUDS BELOW 12,000 FEET WITH
NO SIGNIFICANT WEATHER AND/OR OBSTRUCTIONS TO VISIBILITY.

* THESE REPORTS ARE NOT UNDER NWS QUALITY CONTROL AND MAY NOT
  REPORT WEATHER SUCH AS PRECIPITATION AND FOG.

KYZ079-080-083-085-087-088-110-112-115-119-120-181700
...EASTERN KENTUCKY...

CITY           SKY/WX    TMP DP  RH WIND       PRES   REMARKS
JACKSON        CLOUDY    54  33  45 VRB3      29.94S
LONDON         CLOUDY    54  34  46 SW5       29.95S
SOMERSET*      CLOUDY    50  34  53 S5        29.97R
MONTICELLO*    CLOUDY    54  41  61 VRB7G17   29.98R
WILLIAMSBURG*  CLOUDY    50  37  62 CALM      29.97R
MIDDLESBORO*   CLOUDY    49  38  64 CALM      29.97S
HARLAN APT*    CLOUDY    46  34  61 CALM      29.97S
PIKE CO APT*     N/A     52  33  47 SE3       29.94R
BIG SANDY APT* PTSUNNY   54  34  47 SW5       29.94S
MOREHEAD APT*  PTSUNNY   54  34  47 SW10G17   29.94S
ASHLAND*       PTSUNNY   37  37 100 CALM      29.89F
$$

KYZ035-036-041-042-044-050-067-078-099-181700
...CENTRAL KENTUCKY...

CITY           SKY/WX    TMP DP  RH WIND       PRES   REMARKS
MT STERLING*   CLOUDY    52  36  54 SW7       29.93S
FLEMING/MASON* CLOUDY    53  38  56 SW10      29.91F
DANVILLE*      CLOUDY    52  36  54 S7        29.94S
LEXINGTON      CLOUDY    55  39  54 SW8       29.92S
FRANKFORT      CLOUDY    54  39  57 SW12      29.89F
LOUISVILLE     CLOUDY    60  37  42 SW9       29.88F
LEBANON*       PTSUNNY   54  41  62 CALM      29.92F
GLASGOW*       CLOUDY    53  40  61 SW9       29.95R
BOWLING GREEN  CLOUDY    55  41  59 SW8       29.95R
$$

KYZ091>093-OHZ055-061-077-WVZ005-015-034-035-042-181700
...SOUTHERN OHIO/WEST VIRGINIA...

CITY           SKY/WX    TMP DP  RH WIND       PRES   REMARKS
COVINGTON      CLOUDY    57  37  47 SW14      29.85F
COLUMBUS       PTSUNNY   58  35  42 SW10      29.82F
DAYTON         MOSUNNY   56  36  47 SW20      29.83S
WILMINGTON     CLOUDY    57  38  48 SW13      29.84F
HUNTINGTON     MOSUNNY   56  32  40 S7        29.91S
CHARLESTON     CLOUDY    62  34  35 SW5       29.91S
PINEVILLE*       N/A     51  31  47 MISG      30.00S
BECKLEY        MOSUNNY   54  30  40 W6        29.94F
BLUEFIELD      MOSUNNY   53  29  39 W9        29.96F
LOGAN CO APT*    N/A     54  32  43 CALM      29.93F
$$

VAZ002-007-008-TNZ017-027-036-066-071-181700
...SOUTHWEST VIRGINIA/EAST TENNESSEE...

CITY           SKY/WX    TMP DP  RH WIND       PRES   REMARKS
WISE*          CLOUDY    54  30  40 SW3       29.97F
JONESVILLE*      N/A     48  36  61 CALM      30.00S
ABINGDON*      CLOUDY    57  32  39 CALM      29.96F
BRISTOL        CLOUDY    54  35  48 CALM      29.96F
MORRISTOWN*    MOSUNNY   55  34  44 CALM      29.95F
SEVIERVILLE*   MOSUNNY   50  32  50 W3        29.99R
KNOXVILLE      LGT RAIN  49  38  65 SW13      30.01R
LAFOLLETTE*    PTSUNNY   48  39  71 CALM      30.00S
OAK RIDGE      LGT RAIN  49  38  65 VRB6      30.03R
CROSSVILLE     LGT RAIN  45  43  93 VRB5      30.01R FOG
NASHVILLE      LGT RAIN  50  46  86 S10       29.97S
$$

...KEY TO REMARKS...
VSB - VISIBILITY IN MILES
WCI - WIND CHILL INDEX
HX  - HEAT INDEX

$$



USA.gov is the U.S. government's official web portal to all federal, state and local government web resources and services.